Location: Home
(42.5358°N, 72.7383°W)
Time: 06:54:04
(UTC-04:00)

Tiangong - Visible Passes

Search period start: 24 September 2023 00:00
Search period end: 04 October 2023 00:00
Orbit: 374 x 385 km, 41.5° (Epoch: 24 September)

Date Brightness Start Highest point End Pass type
(mag) Time Alt. Az. Time Alt. Az. Time Alt. Az.
27 Sep 0.2 20:03:15 10° S 20:04:00 13° S 20:04:00 13° S visible
28 Sep 0.4 20:37:09 10° SW 20:37:56 16° SW 20:37:56 16° SW visible
29 Sep -0.7 19:36:07 10° SSW 19:38:39 23° SSE 19:39:34 20° SE visible
30 Sep -1.6 20:10:31 10° WSW 20:13:10 44° S 20:13:10 44° S visible
01 Oct -1.2 19:09:10 10° SW 19:12:01 33° SSE 19:14:32 12° E visible
01 Oct 0.3 20:45:25 10° W 20:46:38 21° WSW 20:46:38 21° WSW visible
02 Oct -2.1 19:43:48 10° WSW 19:46:54 61° S 19:47:54 37° ESE visible
03 Oct -1.4 20:18:43 10° W 20:21:09 49° WSW 20:21:09 49° WSW visible
